Weather History for Ithaca, NY

Change the Weather History Date:

Saturday, June 15, 2013

  Actual Average Record
Temperature  
Mean Temperature 60 °F -  
Max Temperature 72 °F 76 °F 93 °F (1956)
Min Temperature 47 °F 53 °F 36 °F (1978)
Degree Days  
Heating Degree Days 6    
Growing Degree Days 10 (Base 50)    
Moisture  
Dew Point 49 °F    
Average Humidity 77    
Maximum Humidity 100    
Minimum Humidity 35    
Precipitation  
Precipitation 0.00 in - - ()
Sea Level Pressure  
Sea Level Pressure 30.02 in    
Wind  
Wind Speed 3 mph (NW)    
Max Wind Speed 12 mph    
Max Gust Speed 22 mph    
Visibility 8 miles    
Events Fog    
Averages and records for this station are not official NWS values.
T = Trace of Precipitation, MM = Missing Value Source: NWS Daily Summary

Daily Weather History Graph

Daily Weather History Graph

Search for Another Location

Airport:

Trip Planner

Search our weather history database for the weather conditions in past years. The results will help you decide how hot, cold, wet, or windy it might be!

Date:

Astronomy

Jun. 15, 2013 Rise Set
Actual Time 5:27 AM EDT 8:45 PM EDT
Civil Twilight 4:53 AM EDT 9:19 PM EDT
Nautical Twilight 4:08 AM EDT 10:04 PM EDT
Astronomical Twilight 3:12 AM EDT 11:00 PM EDT
Moon 12:07 PM EDT (6/15) 12:12 AM EDT (6/15)
Length of Visible Light 16h 26m
Length of Day
15h 17m
Waxing Crescent, 39% of the Moon is Illuminated
Jun 15
Waxing Crescent
Jun 16
First Quarter
Jun 23
Full
Jun 30
Last Quarter
Jul 8
New

Hourly Weather History & Observations

Time (EDT) Temp. Dew Point Humidity Pressure Visibility Wind Dir Wind Speed Gust Speed Precip Events Conditions
12:56 AM 52.9 °F 52.0 °F 97% 30.00 in 10.0 mi North 3.5 mph - N/A   Clear
1:56 AM 55.9 °F 54.0 °F 93% 29.99 in 10.0 mi North 4.6 mph - N/A   Partly Cloudy
2:56 AM 52.9 °F 50.9 °F 93% 30.00 in 10.0 mi Calm Calm - N/A   Clear
3:56 AM 54.9 °F 52.9 °F 93% 30.00 in 10.0 mi North 5.8 mph - N/A   Clear
4:56 AM 48.9 °F 48.9 °F 100% 30.01 in 4.0 mi Calm Calm - N/A   Clear
5:08 AM 48.2 °F 48.2 °F 100% 30.01 in 2.0 mi Calm Calm - N/A   Clear
5:13 AM 48.2 °F 48.2 °F 100% 30.02 in 1.2 mi Calm Calm - N/A   Clear
5:19 AM 48.2 °F 48.2 °F 100% 30.02 in 0.8 mi Calm Calm - N/A   Clear
5:26 AM 48.2 °F 46.4 °F 93% 30.02 in 0.2 mi Calm Calm - N/A Fog Fog
5:42 AM 48.2 °F 46.4 °F 93% 30.02 in 0.5 mi Calm Calm - N/A Fog Fog
5:56 AM 47.8 °F 46.9 °F 97% 30.01 in 0.5 mi Calm Calm - N/A Fog Fog
6:02 AM 48.2 °F 48.2 °F 100% 30.01 in 1.0 mi Calm Calm - N/A   Clear
6:16 AM 48.2 °F 48.2 °F 100% 30.01 in 2.0 mi Calm Calm - N/A   Clear
6:26 AM 48.2 °F 48.2 °F 100% 30.02 in 10.0 mi Calm Calm - N/A Fog Patches of Fog
6:56 AM 52.9 °F 52.0 °F 97% 30.04 in 10.0 mi Calm Calm - N/A   Clear
7:56 AM 59.0 °F 54.0 °F 83% 30.06 in 10.0 mi Variable 3.5 mph - N/A   Clear
8:56 AM 61.0 °F 50.9 °F 69% 30.05 in 10.0 mi NNW 6.9 mph - N/A   Clear
9:56 AM 63.9 °F 50.0 °F 61% 30.06 in 10.0 mi NNW 3.5 mph - N/A   Clear
10:56 AM 66.9 °F 52.9 °F 61% 30.06 in 10.0 mi West 3.5 mph - N/A   Clear
11:56 AM 70.0 °F 52.0 °F 53% 30.06 in 10.0 mi NW 9.2 mph - N/A   Scattered Clouds
12:56 PM 70.9 °F 48.9 °F 46% 30.04 in 10.0 mi NW 9.2 mph 16.1 mph N/A   Scattered Clouds
1:56 PM 72.0 °F 47.8 °F 42% 30.03 in 10.0 mi WNW 9.2 mph 21.9 mph N/A   Scattered Clouds
2:56 PM 72.0 °F 46.9 °F 41% 30.02 in 10.0 mi WNW 8.1 mph - N/A   Partly Cloudy
3:56 PM 72.9 °F 45.9 °F 38% 30.01 in 10.0 mi NW 11.5 mph - N/A   Partly Cloudy
4:56 PM 72.9 °F 43.9 °F 35% 30.00 in 10.0 mi NNW 9.2 mph - N/A   Clear
5:56 PM 72.0 °F 45.9 °F 39% 30.00 in 10.0 mi NNW 5.8 mph - N/A   Clear
6:56 PM 70.9 °F 45.0 °F 39% 30.00 in 10.0 mi NNW 5.8 mph - N/A   Clear
7:56 PM 66.9 °F 46.9 °F 49% 30.01 in 10.0 mi NW 5.8 mph - N/A   Clear
8:56 PM 61.9 °F 50.0 °F 65% 30.01 in 10.0 mi Calm Calm - N/A   Clear
9:56 PM 54.0 °F 50.9 °F 89% 30.04 in 10.0 mi Calm Calm - N/A   Clear
10:56 PM 52.9 °F 50.0 °F 90% 30.02 in 10.0 mi Calm Calm - N/A   Clear
11:56 PM 52.0 °F 50.0 °F 93% 30.01 in 10.0 mi Calm Calm - N/A   Clear